Weather History for Ephrata, WA

Change the Weather History Date:

Wednesday, February 22, 2012

  Actual Average Record
Temperature  
Mean Temperature 47 °F 36 °F  
Max Temperature 54 °F 45 °F 62 °F (1988)
Min Temperature 39 °F 27 °F 13 °F (1985)
Degree Days  
Heating Degree Days 18 29  
Month to date heating degree days 613 695  
Since 1 July heating degree days 4236 4403  
Cooling Degree Days 0 0  
Month to date cooling degree days 0 0  
Year to date cooling degree days 0 0  
Moisture  
Dew Point 29 °F    
Average Humidity 52    
Maximum Humidity 76    
Minimum Humidity 27    
Precipitation  
Precipitation 0.00 in 0.02 in 0.26 in (1989)
Month to date precipitation 0.41 0.57  
Year to date precipitation 0.65 1.48  
Sea Level Pressure  
Sea Level Pressure 29.91 in    
Wind  
Wind Speed 21 mph (West)    
Max Wind Speed 36 mph    
Max Gust Speed 44 mph    
Visibility 10 miles    
Events      
T = Trace of Precipitation, MM = Missing Value Source: NWS Daily Summary

Daily Weather History Graph

Daily Weather History Graph

Search for Another Location

Airport:

Trip Planner

Search our weather history database for the weather conditions in past years. The results will help you decide how hot, cold, wet, or windy it might be!

Date:

Astronomy

Feb. 22, 2012 Rise Set
Actual Time 6:51 AM PST 5:32 PM PST
Civil Twilight 6:20 AM PST 6:03 PM PST
Nautical Twilight 5:45 AM PST 6:38 PM PST
Astronomical Twilight 5:09 AM PST 7:14 PM PST
Moon 6:45 AM PST (2/22) 6:52 PM PST (2/22)
Length of Visible Light 11h 42m
Length of Day
10h 40m
New Moon, 1% of the Moon is Illuminated
Feb 22
New Moon
Feb 29
First Quarter
Mar 8
Full
Mar 14
Last Quarter
Mar 22
New

Hourly Weather History & Observations

Time (PST) Temp. Windchill Dew Point Humidity Pressure Visibility Wind Dir Wind Speed Gust Speed Precip Events Conditions
12:53 AM 42.1 °F 39.2 °F 35.1 °F 76% 29.85 in 10.0 mi South 4.6 mph - N/A   Clear
1:53 AM 50.0 °F - 37.0 °F 61% 29.81 in 10.0 mi SW 16.1 mph 19.6 mph N/A   Clear
2:53 AM 53.1 °F - 36.0 °F 52% 29.75 in 10.0 mi West 28.8 mph 39.1 mph N/A   Clear
3:53 AM 53.1 °F - 35.1 °F 50% 29.73 in 10.0 mi West 42.6 mph 54.1 mph N/A   Clear
4:53 AM 50.0 °F - 37.0 °F 61% 29.73 in 10.0 mi WSW 25.3 mph 35.7 mph N/A   Clear
5:53 AM 46.9 °F - 37.0 °F 68% 29.74 in 10.0 mi WSW 21.9 mph 29.9 mph N/A   Clear
6:53 AM 46.0 °F 38.3 °F 36.0 °F 68% 29.74 in 10.0 mi WSW 20.7 mph 29.9 mph N/A   Clear
7:53 AM 46.0 °F 38.8 °F 37.0 °F 71% 29.75 in 10.0 mi WSW 18.4 mph 31.1 mph N/A   Clear
8:53 AM 48.9 °F - 36.0 °F 61% 29.80 in 10.0 mi WNW 21.9 mph 29.9 mph N/A   Clear
9:53 AM 50.0 °F - 28.0 °F 43% 29.85 in 10.0 mi WNW 18.4 mph 35.7 mph N/A   Unknown
10:53 AM 51.1 °F - 19.0 °F 28% 29.88 in 10.0 mi WNW 23.0 mph 42.6 mph N/A   Clear
11:53 AM 50.0 °F - 18.0 °F 28% 29.91 in 10.0 mi West 29.9 mph 41.4 mph N/A   Clear
12:53 PM 52.0 °F - 21.9 °F 31% 29.95 in 10.0 mi West 21.9 mph 32.2 mph N/A   Clear
1:53 PM 51.1 °F - 24.1 °F 35% 29.96 in 10.0 mi West 21.9 mph 31.1 mph N/A   Clear
2:53 PM 48.0 °F - 26.1 °F 42% 29.98 in 10.0 mi WNW 23.0 mph 32.2 mph N/A   Clear
3:53 PM 46.9 °F - 28.0 °F 48% 29.99 in 10.0 mi WNW 16.1 mph 31.1 mph N/A   Clear
4:53 PM 45.0 °F 36.9 °F 26.1 °F 48% 29.98 in 10.0 mi WNW 20.7 mph 32.2 mph N/A   Clear
5:53 PM 43.0 °F 34.5 °F 24.1 °F 47% 30.00 in 10.0 mi WNW 19.6 mph 33.4 mph N/A   Clear
6:53 PM 42.1 °F 34.2 °F 26.1 °F 53% 30.04 in 10.0 mi WNW 16.1 mph 25.3 mph N/A   Clear
7:53 PM 39.9 °F 29.2 °F 27.0 °F 60% 30.04 in 10.0 mi WNW 25.3 mph - N/A   Clear
8:53 PM 39.9 °F 31.1 °F 27.0 °F 60% 30.06 in 10.0 mi WNW 17.3 mph - N/A   Clear
9:53 PM 39.9 °F 29.5 °F 26.1 °F 58% 30.07 in 10.0 mi WNW 24.2 mph 31.1 mph N/A   Clear
10:53 PM 39.9 °F 31.1 °F 24.1 °F 53% 30.09 in 10.0 mi WNW 17.3 mph 24.2 mph N/A   Clear
11:53 PM 39.9 °F 33.4 °F 23.0 °F 51% 30.12 in 10.0 mi WNW 10.4 mph 18.4 mph N/A   Clear